{"data":{"norad_id":47657,"epoch":"2026-08-25T05:22:52.069728Z","epoch_age_seconds":2297298,"freshness":"OLD","line1":"1 47657U 21012AP  26237.22421377  .06224580  12379-4  51354-3 0  9997","line2":"2 47657  53.1308 305.1197 0005245 318.8301  41.2350 16.38948646306679","mean_motion":16.38948646,"eccentricity":0.0005245,"inclination_deg":53.1308,"raan_deg":305.1197,"arg_perigee_deg":318.8301,"mean_anomaly_deg":41.235,"bstar":0.00051354,"rev_number":30667,"period_min":87.861203187449,"perigee_km":165.16698396053,"apogee_km":172.03451185809,"semimajor_km":6546.7377479093,"source":"CELESTRAK","updated_at":"2026-08-25T09:00:50.352814Z"}}